Marshfield, WI

5:41 PM CDT on April 24, 2017 (GMT -0500)
Marshfield Municipal

Weather History for KMFI - October, 2014

Change the Weather History Date:

Monday, October 13, 2014

  Actual Average Record
Temperature  
Mean Temperature 51 °F -  
Max Temperature 54 °F 58 °F 81 °F (1975)
Min Temperature 48 °F 35 °F 15 °F (1917)
Degree Days  
Heating Degree Days 14    
Growing Degree Days 1 (Base 50)    
Moisture  
Dew Point 49 °F    
Average Humidity 95    
Maximum Humidity 100    
Minimum Humidity 86    
Precipitation  
Precipitation 0.35 in - - ()
Sea Level Pressure  
Sea Level Pressure 29.79 in    
Wind  
Wind Speed 6 mph (East)    
Max Wind Speed 15 mph    
Max Gust Speed 25 mph    
Visibility 3 miles    
Events Fog , Rain    
Averages and records for this station are not official NWS values.
T = Trace of Precipitation, MM = Missing Value Source: NWS Daily Summary

Daily Weather History Graph

Daily Weather History Graph

Search for Another Location

Airport or City:

Trip Planner

Search our weather history database for the weather conditions in past years. The results will help you decide how hot, cold, wet, or windy it might be!

Date:

Astronomy

Oct. 13, 2014 Rise Set
Actual Time 7:13 AM CDT 6:19 PM CDT
Civil Twilight 6:44 AM CDT 6:48 PM CDT
Nautical Twilight 6:10 AM CDT 7:22 PM CDT
Astronomical Twilight 5:36 AM CDT 7:56 PM CDT
Moon 10:22 PM CDT (10/13) 12:35 PM CDT (10/13)
Length of Visible Light 12h 04m
Length of Day
11h 06m
Waning Gibbous, 70% of the Moon is Illuminated
Oct 13
Waning Gibbous
Oct 15
Last Quarter
Oct 23
New
Oct 30
First Quarter
Nov 6
Full

Hourly Weather History & Observations

Time (CDT) Temp. Dew Point Humidity Pressure Visibility Wind Dir Wind Speed Gust Speed Precip Events Conditions
12:32 AM 48.9 °F 46.9 °F 93% 29.85 in 3.0 mi ESE 5.8 mph - 0.00 in Rain Light Rain
12:42 AM 48.9 °F 46.9 °F 93% 29.85 in 2.5 mi ESE 6.9 mph - 0.00 in Rain Light Rain
12:54 AM 48.9 °F 46.9 °F 93% 29.86 in 3.0 mi ESE 8.1 mph - 0.00 in   Overcast
1:18 AM 48.9 °F 46.9 °F 93% 29.85 in 3.0 mi SE 6.9 mph - N/A   Overcast
1:27 AM 48.9 °F 46.9 °F 93% 29.85 in 2.0 mi SE 4.6 mph - N/A   Overcast
1:32 AM 48.9 °F 46.9 °F 93% 29.84 in 1.8 mi SE 5.8 mph - N/A   Overcast
1:54 AM 48.9 °F 46.9 °F 93% 29.85 in 1.8 mi SE 5.8 mph - N/A   Overcast
2:06 AM 48.9 °F 46.9 °F 93% 29.83 in 1.5 mi SE 4.6 mph - N/A   Overcast
2:13 AM 48.9 °F 46.9 °F 93% 29.84 in 1.2 mi SE 4.6 mph - N/A   Overcast
2:54 AM 48.9 °F 46.9 °F 93% 29.85 in 1.8 mi SSE 4.6 mph - N/A   Overcast
3:09 AM 48.9 °F 46.9 °F 93% 29.83 in 2.0 mi SE 5.8 mph - 0.00 in Rain Light Rain
3:54 AM 48.9 °F 46.9 °F 93% 29.83 in 1.5 mi SE 5.8 mph - 0.00 in   Overcast
4:13 AM 48.9 °F 46.9 °F 93% 29.82 in 1.0 mi ESE 5.8 mph - N/A   Overcast
4:30 AM 48.9 °F 46.9 °F 93% 29.82 in 0.8 mi ESE 3.5 mph - N/A   Overcast
4:54 AM 48.0 °F 46.9 °F 96% 29.83 in 0.5 mi ESE 5.8 mph - N/A Fog Fog
5:54 AM 48.0 °F 46.9 °F 96% 29.83 in 0.5 mi ESE 4.6 mph - N/A Fog Fog
6:54 AM 48.9 °F 48.0 °F 97% 29.82 in 0.2 mi ESE 4.6 mph - N/A Fog Fog
7:54 AM 48.9 °F 48.0 °F 97% 29.86 in 0.2 mi SSE 3.5 mph - N/A Fog Fog
8:27 AM 48.9 °F 48.0 °F 97% 29.84 in 1.0 mi SE 5.8 mph - N/A   Overcast
8:34 AM 48.9 °F 48.0 °F 97% 29.83 in 1.5 mi ESE 4.6 mph - N/A   Overcast
8:54 AM 50.0 °F 48.9 °F 96% 29.86 in 2.5 mi South 4.6 mph - N/A   Overcast
9:01 AM 48.9 °F 48.0 °F 97% 29.84 in 3.0 mi SSE 5.8 mph - N/A   Overcast
9:08 AM 50.0 °F 48.0 °F 93% 29.84 in 2.0 mi SSE 4.6 mph - N/A   Overcast
9:18 AM 50.0 °F 48.0 °F 93% 29.84 in 1.8 mi SSE 5.8 mph - N/A   Overcast
9:38 AM 50.0 °F 48.9 °F 96% 29.83 in 2.5 mi SSE 4.6 mph - N/A   Overcast
9:54 AM 50.0 °F 48.9 °F 96% 29.85 in 3.0 mi South 5.8 mph - N/A   Overcast
10:54 AM 51.1 °F 50.0 °F 96% 29.84 in 7.0 mi Calm Calm - N/A   Overcast
11:22 AM 52.0 °F 50.0 °F 93% 29.83 in 9.0 mi SSE 3.5 mph - N/A   Overcast
11:54 AM 53.1 °F 50.0 °F 89% 29.84 in 10.0 mi SE 5.8 mph - N/A   Overcast
12:54 PM 54.0 °F 50.0 °F 86% 29.83 in 10.0 mi SE 5.8 mph - N/A   Overcast
1:54 PM 53.1 °F 51.1 °F 93% 29.80 in 5.0 mi ESE 3.5 mph - N/A   Overcast
2:41 PM 53.1 °F 51.1 °F 93% 29.79 in 2.5 mi East 4.6 mph - 0.00 in Rain Light Rain
2:54 PM 53.1 °F 51.1 °F 93% 29.81 in 2.5 mi ESE 4.6 mph - 0.00 in Rain Light Rain
3:03 PM 53.1 °F 51.1 °F 93% 29.78 in 1.8 mi East 4.6 mph - 0.00 in Rain Light Rain
3:25 PM 53.1 °F 51.1 °F 93% 29.77 in 1.8 mi ENE 5.8 mph - 0.00 in Rain Light Rain
3:32 PM 53.1 °F 51.1 °F 93% 29.78 in 2.5 mi ENE 4.6 mph - 0.00 in Rain Light Rain
3:54 PM 53.1 °F 51.1 °F 93% 29.78 in 2.5 mi ENE 5.8 mph - 0.00 in Rain Light Rain
4:16 PM 53.1 °F 51.1 °F 93% 29.76 in 2.5 mi ENE 4.6 mph - 0.00 in Rain Light Rain
4:20 PM 53.1 °F 52.0 °F 96% 29.76 in 2.5 mi ENE 4.6 mph - 0.00 in Rain Light Rain
4:25 PM 53.1 °F 52.0 °F 96% 29.76 in 3.0 mi ENE 5.8 mph - 0.00 in Rain Light Rain
4:54 PM 53.1 °F 51.1 °F 93% 29.77 in 3.0 mi ENE 8.1 mph - 0.00 in Rain Light Rain
5:04 PM 53.1 °F 51.1 °F 93% 29.75 in 2.5 mi ENE 8.1 mph - 0.01 in Rain Light Rain
5:54 PM 53.1 °F 52.0 °F 96% 29.75 in 2.0 mi NE 9.2 mph - 0.06 in Rain Rain
6:09 PM 52.0 °F 52.0 °F 100% 29.72 in 3.0 mi NNE 10.4 mph - 0.03 in Rain Rain
6:54 PM 52.0 °F 52.0 °F 100% 29.71 in 4.0 mi NE 15.0 mph - 0.10 in Rain Rain
7:14 PM 52.0 °F 52.0 °F 100% 29.69 in 5.0 mi NNE 13.8 mph 20.7 mph 0.02 in Rain Light Rain
7:54 PM 52.0 °F 52.0 °F 100% 29.70 in 8.0 mi NNE 11.5 mph - 0.02 in Rain Light Rain
8:12 PM 52.0 °F 52.0 °F 100% 29.68 in 8.0 mi NNE 10.4 mph 18.4 mph 0.00 in Rain Light Rain
8:54 PM 52.0 °F 52.0 °F 100% 29.70 in 7.0 mi NNE 11.5 mph - 0.01 in Rain Light Rain
9:54 PM 52.0 °F 50.0 °F 93% 29.69 in 4.0 mi NNE 10.4 mph - 0.04 in Rain Light Rain
10:29 PM 52.0 °F 51.1 °F 97% 29.66 in 2.5 mi NNE 12.7 mph 19.6 mph 0.03 in Rain Light Rain
10:37 PM 52.0 °F 51.1 °F 97% 29.67 in 3.0 mi NNE 11.5 mph - 0.04 in Rain Light Rain
10:54 PM 52.0 °F 51.1 °F 97% 29.68 in 4.0 mi NNE 12.7 mph - 0.06 in Rain Rain
11:54 PM 52.0 °F 51.1 °F 97% 29.65 in 6.0 mi NE 13.8 mph 25.3 mph 0.06 in Rain Light Rain